Starlink 31128

operational
NORAD ID: 58669 Int'l Des: 2023-211 Owner: SPXS Country: US Constellation: starlink
LEOCIRCULAR

Starlink 31128について

説明を読み込み中...

リアルタイム位置

3D地球を読み込み中...

次回通過

高度履歴

Altitude vs Time

uPlot chart will show altitude changes over time

軌道要素

1 58669U 23211C 25259.68383044 .00000690 00000-0 34584-4 0 9995
2 58669 42.9999 347.8893 0000265 242.5340 117.5484 15.27578621 95854
Epoch: Sep 16, 2025 • Age: 56 hours

現在のステータス

高度 482.1 km
速度 7.63 km/s
衛星直下点 14.40°N, 140.34°E
打ち上げ日 Dec 29, 2023
運用期間 1.7 years
タイプ internet

技術仕様

分類 Payload
質量 730.00 kg
乾燥質量 700.00 kg
総質量 730.00 kg
長さ 0.30 m
直径 4.10 m
スパン 29.00 m
形状 Box + pan
製造者 SPXS
バスタイプ Starlink V2M
フェーズステータス In Orbit
所有者/国 SPXS/US

大規模コンステレーション

Loading constellations...